Location: Calmejanne
(44.7523°N, 1.9418°E)
Time: 16:27:51
(UTC+00:00)

CZ-4B R/B - Pass Details

Date: 14 May 2026
Orbit: 460 x 562 km, 97.8° (Epoch: 10 June)

Event Time Altitude Azimuth Distance (km) Brightness Sun altitude
Rises 19:53:20 0° 173° (S) 2,731 7.0 -7.0°
Reaches altitude 10° 19:55:28 10° 176° (S) 1,847 6.1 -7.3°
Maximum altitude 19:59:27 64° 258° (WSW) 626 4.3 -7.9°
Drops below altitude 10° 20:03:28 10° 341° (NNW) 1,863 7.5 -8.4°
Sets 20:05:38 0° 345° (NNW) 2,759 8.3 -8.7°
